GW2834 Weather Reports


time (UTC)temp
C
wind
direction
speed
KPH
gust
KPH
rain 1hr
cm
rain 24hr
cm
rain mn
cm
humidity
%
barometer
mb
20260505181929 27 58 3.2 8.0 0.00 0.00 0.00 43 1016.1
20260505180928 26 233 3.2 9.7 0.00 0.00 0.00 47 1016.2
20260505175928 26 272 4.8 19.3 0.00 0.00 0.00 44 1016.3
20260505174929 27 260 3.2 14.5 0.00 0.00 0.00 44 1016.3
20260505173929 27 221 3.2 8.0 0.00 0.00 0.00 45 1016.3
20260505172922 26 211 3.2 9.7 0.00 0.00 0.00 44 1016.3
20260505171921 26 333 3.2 14.5 0.00 0.00 0.00 44 1016.2
20260505170923 26 202 3.2 9.7 0.00 0.00 0.00 43 1016.5
20260505165921 26 192 3.2 9.7 0.00 0.00 0.00 46 1016.6
20260505165401 26 177 1.6 4.8 0.00 0.00 0.00 46 1016.8
20260505163923 25 254 4.8 16.1 0.00 0.00 0.00 47 1016.9
20260505162923 25 159 3.2 14.5 0.00 0.00 0.00 45 1016.9
20260505161923 26 5 1.6 6.4 0.00 0.00 0.00 46 1016.9
20260505160923 25 268 1.6 6.4 0.00 0.00 0.00 48 1017.0
20260505152352 23 206 3.2 8.0 0.00 0.00 0.00 54 1017.5
20260505150920 23 320 3.2 6.4 0.00 0.00 0.00 55 1017.7
20260505124913 16 280 1.6 4.8 0.00 0.00 0.00 79 1017.5
20260505123911 15 244 1.6 6.4 0.00 0.00 0.00 80 1017.5
20260505122911 15 159 1.6 3.2 0.00 0.00 0.00 82 1017.5
20260505121912 14 156 0.0 3.2 0.00 0.00 0.00 82 1017.5
20260505121345 13 152 0.0 3.2 0.00 0.00 0.00 84 1017.5
20260505115912 13 153 0.0 1.6 0.00 0.00 0.00 85 1017.4
20260505114912 12 153 0.0 3.2 0.00 0.00 0.00 88 1017.4
20260505113913 12 153 0.0 3.2 0.00 0.00 0.00 88 1017.4
20260505112912 11 153 0.0 3.2 0.00 0.00 0.00 88 1017.4
20260505111909 11 153 0.0 1.6 0.00 0.00 0.00 87 1017.2
20260505110909 11 153 1.6 3.2 0.00 0.00 0.00 86 1017.0
20260505101907 11 153 0.0 0.0 0.00 0.00 0.00 83 1016.4
20260505100908 12 153 0.0 0.0 0.00 0.00 0.00 83 1016.4
20260505095906 12 153 0.0 3.2 0.00 0.00 0.00 82 1016.3
20260505094905 12 153 0.0 3.2 0.00 0.00 0.00 82 1016.3
20260505093904 12 154 0.0 3.2 0.00 0.00 0.00 81 1016.1
20260505092906 12 154 0.0 3.2 0.00 0.00 0.00 81 1016.1
20260505091904 12 154 0.0 3.2 0.00 0.00 0.00 80 1016.1
20260505090902 13 154 0.0 1.6 0.00 0.00 0.00 79 1016.0
20260505090342 13 154 0.0 3.2 0.00 0.00 0.00 78 1016.1
20260505085828 13 154 0.0 1.6 0.00 0.00 0.00 78 1015.9
20260505083904 13 154 0.0 1.6 0.00 0.00 0.00 78 1015.9
20260505082903 13 154 0.0 1.6 0.00 0.00 0.00 77 1015.9
20260505081903 13 154 0.0 3.2 0.00 0.00 0.00 77 1015.9
20260505080903 14 154 0.0 3.2 0.00 0.00 0.00 76 1015.8
20260505075904 14 154 1.6 3.2 0.00 0.00 0.00 76 1015.8
20260505074902 14 153 0.0 3.2 0.00 0.00 0.00 75 1015.6
20260505073900 15 152 1.6 4.8 0.00 0.00 0.00 74 1015.6
20260505072900 15 196 0.0 3.2 0.00 0.00 0.00 73 1015.5
20260505071900 15 197 0.0 3.2 0.00 0.00 0.00 73 1015.5
20260505070858 15 197 0.0 3.2 0.00 0.00 0.00 73 1015.5
20260505065858 15 197 1.6 4.8 0.00 0.00 0.00 73 1015.5
20260505064900 15 143 1.6 4.8 0.00 0.00 0.00 72 1015.5
20260505064337 15 144 1.6 3.2 0.00 0.00 0.00 71 1015.5
20260505062856 16 144 1.6 4.8 0.00 0.00 0.00 71 1015.5
20260505061857 16 160 1.6 4.8 0.00 0.00 0.00 70 1015.5
20260505060857 16 157 1.6 4.8 0.00 0.00 0.00 70 1015.5
20260505055858 16 156 1.6 6.4 0.00 0.00 0.00 70 1015.6
20260505054856 16 158 1.6 6.4 0.00 0.00 0.00 69 1015.5
20260505054819 16 106 1.6 4.8 0.00 0.00 0.00 69 1015.5
20260505052854 16 127 3.2 6.4 0.00 0.00 0.00 68 1015.6
20260505051854 17 228 3.2 6.4 0.00 0.00 0.00 68 1015.7
20260505050854 17 171 1.6 4.8 0.00 0.00 0.00 67 1015.7
20260505040850 17 157 3.2 11.3 0.00 0.00 0.00 65 1015.6
20260505035850 18 239 3.2 6.4 0.00 0.00 0.00 65 1015.6
20260505034849 18 154 3.2 6.4 0.00 0.00 0.00 65 1015.5
20260505034802 18 155 1.6 6.4 0.00 0.00 0.00 66 1015.6
20260505032849 18 157 3.2 9.7 0.00 0.00 0.00 65 1015.5
20260505031849 18 133 1.6 8.0 0.00 0.00 0.00 65 1015.4
20260505030850 18 182 3.2 11.3 0.00 0.00 0.00 64 1015.4
20260505025846 18 98 3.2 8.0 0.00 0.00 0.00 63 1015.4
20260505024846 19 161 3.2 8.0 0.00 0.00 0.00 62 1015.4
20260505023846 19 173 3.2 9.7 0.00 0.00 0.00 60 1015.5
20260505022848 20 105 3.2 9.7 0.00 0.00 0.00 58 1015.3
20260505021846 20 149 3.2 20.9 0.00 0.00 0.00 54 1015.2
20260505020845 20 123 3.2 9.7 0.00 0.00 0.00 52 1015.1
20260505015845 20 137 3.2 6.4 0.00 0.00 0.00 51 1014.9
20260505014844 20 160 1.6 4.8 0.00 0.00 0.00 51 1014.8
20260505013844 20 159 1.6 4.8 0.00 0.00 0.00 50 1014.7
20260505012845 20 156 1.6 4.8 0.00 0.00 0.00 49 1014.6
20260505011845 20 142 1.6 6.4 0.00 0.00 0.00 49 1014.4
20260505010846 20 144 1.6 8.0 0.00 0.00 0.00 49 1014.4
20260505010325 20 163 1.6 4.8 0.00 0.00 0.00 49 1014.3
20260505005331 20 159 0.0 3.2 0.00 0.00 0.00 48 1014.2
20260505003845 20 171 0.0 0.0 0.00 0.00 0.00 46 1014.2
20260505002845 21 173 1.6 3.2 0.00 0.00 0.00 46 1014.0
20260505001844 21 167 0.0 1.6 0.00 0.00 0.00 44 1013.9
20260505001343 21 167 1.6 3.2 0.00 0.00 0.00 43 1013.9
20260504235845 21 171 1.6 3.2 0.00 0.00 0.00 43 1013.8
20260504235333 22 276 0.0 0.0 0.00 0.00 0.00 42 1013.7
20260504233845 22 276 0.0 1.6 0.00 0.00 0.00 41 1013.6
20260504232845 23 276 0.0 1.6 0.00 0.00 0.00 40 1013.5
20260504231844 23 276 1.6 4.8 0.00 0.00 0.00 38 1013.5
20260504230844 23 283 1.6 6.4 0.00 0.00 0.00 39 1013.6
20260504230320 24 246 1.6 4.8 0.00 0.00 0.00 37 1013.5
20260504224845 24 144 0.0 4.8 0.00 0.00 0.00 38 1013.5
20260504223846 24 233 1.6 6.4 0.00 0.00 0.00 36 1013.5
20260504222842 25 307 1.6 4.8 0.00 0.00 0.00 35 1013.5
20260504222331 25 147 1.6 6.4 0.00 0.00 0.00 36 1013.4
20260504220842 25 125 3.2 8.0 0.00 0.00 0.00 35 1013.4
20260504220319 25 215 1.6 6.4 0.00 0.00 0.00 35 1013.5
20260504214842 25 221 1.6 6.4 0.00 0.00 0.00 36 1013.5
20260504213843 26 17 1.6 6.4 0.00 0.00 0.00 34 1013.5
20260504212840 26 122 1.6 4.8 0.00 0.00 0.00 34 1013.5
20260504211842 26 161 3.2 9.7 0.00 0.00 0.00 34 1013.5
20260504211319 26 145 3.2 11.3 0.00 0.00 0.00 34 1013.5
20260504205841 26 99 1.6 6.4 0.00 0.00 0.00 34 1013.5
20260504204840 26 238 3.2 8.0 0.00 0.00 0.00 34 1013.6
20260504204321 26 226 1.6 6.4 0.00 0.00 0.00 35 1013.7
20260504202840 26 302 1.6 6.4 0.00 0.00 0.00 35 1013.8
20260504201840 26 216 1.6 11.3 0.00 0.00 0.00 35 1013.9
20260504201326 26 248 3.2 12.9 0.00 0.00 0.00 37 1014.0
20260504195840 25 206 3.2 11.3 0.00 0.00 0.00 35 1014.0
20260504194841 26 238 3.2 8.0 0.00 0.00 0.00 36 1014.2
20260504193841 25 215 1.6 8.0 0.00 0.00 0.00 36 1014.4
20260504192838 25 32 3.2 14.5 0.00 0.00 0.00 37 1014.5
20260504191839 25 296 3.2 12.9 0.00 0.00 0.00 38 1014.6
20260504190838 25 175 3.2 8.0 0.00 0.00 0.00 38 1014.6
20260504185838 25 23 1.6 8.0 0.00 0.00 0.00 37 1014.7
20260504184837 25 19 3.2 8.0 0.00 0.00 0.00 36 1014.9
20260504183839 25 34 3.2 8.0 0.00 0.00 0.00 36 1014.8
20260504182839 25 63 3.2 8.0 0.00 0.00 0.00 39 1014.9
20260504182331 25 148 3.2 6.4 0.00 0.00 0.00 37 1015.3